Location: *
(58.7167°N, 26.1833°E)
Time: 10:02:47
(UTC+00:00)

Cosmos 1140 Rocket - Pass Details

Date: 25 August 2019
Orbit: 744 x 768 km, 74.1° (Epoch: 16 September)

Event Time Altitude Azimuth Distance (km) Brightness Sun altitude
Rises 22:58:41 0° 328° (NNW) 3,250 7.5 -20.2°
Reaches altitude 10° 23:01:08 10° 322° (NW) 2,318 6.5 -20.1°
Maximum altitude 23:06:09 47° 250° (WSW) 1,007 3.8 -20.0°
Enters shadow 23:07:22 40° 213° (SSW) 1,124 3.9 -19.9°
